Flag for USA

Past Weather in 45°23'17"N, 122°44'38"W, USA — Yesterday and Last 2 Weeks

Now
73 °F

Clear.


Feels Like: 77 °F
Forecast: 88 / 59 °F
Wind: 6 mph from Northwest

Location: Portland International Airport

Current Time: Aug 9, 2020 at 11:15:21 pm

Latest Report: Aug 9, 2020 at 10:53 pm


Visibility: 10 mi

Pressure: 30.13 "Hg

Humidity: 38%

Dew Point: 46 °F

Location of 45°23'17"N, 122°44'38"WLocation

Past Weather in 45°23'17"N, 122°44'38"W — Graph

°F

45°23'17"N, 122°44'38"W Temperature Yesterday

Maximum temperature yesterday: 78 °F (at 4:53 pm)
Minimum temperature yesterday: 62 °F (at 11:53 pm)
Average temperature yesterday: 68 °F

High & Low Weather Summary for the Past Weeks

 TemperatureHumidityPressure
High99 °F (Jul 26, 4:53 pm)96% (Aug 6, 9:34 am)30.25 "Hg (Aug 6, 9:34 am)
Low56 °F (Aug 7, 3:53 am)12% (Jul 26, 5:53 pm)29.77 "Hg (Jul 27, 5:53 pm)
Average72 °F56%30.01 "Hg
* Reported Jul 25 9:53 pm — Aug 9 9:53 pm, 45°23'17"N, 122°44'38"W. Weather by CustomWeather, © 2020

Note: Actual official high and low records may vary slightly from our data, if they occured in-between our weather recording intervals... More about our weather records

45°23'17"N, 122°44'38"W Weather History for the Previous 24 Hours

Scroll right to see more
 ConditionsComfort  
Time TempWeatherWind HumidityBarometerVisibility
9:53 pm
Sun, Aug 9
75 °FClear.10 mph36%30.13 "Hg10 mi
8:53 pm75 °FClear.9 mph37%30.12 "Hg10 mi
7:53 pm78 °FSunny.10 mph33%30.12 "Hg10 mi
6:53 pm80 °FSunny.17 mph31%30.11 "Hg10 mi
5:53 pm82 °FSunny.12 mph32%30.12 "Hg10 mi
4:53 pm83 °FSunny.9 mph32%30.14 "Hg10 mi
3:53 pm83 °FPassing clouds.13 mph30%30.14 "Hg10 mi
2:53 pm81 °FSunny.7 mph34%30.16 "Hg10 mi
1:53 pm78 °FSunny.9 mph40%30.19 "Hg10 mi
12:53 pm73 °FSunny.8 mph48%30.21 "Hg10 mi
11:53 am69 °FSunny.3 mph55%30.23 "Hg10 mi
10:53 am67 °FPassing clouds.6 mph57%30.24 "Hg10 mi
9:53 am64 °FPassing clouds.No wind63%30.25 "Hg10 mi
8:53 am61 °FPassing clouds.No wind70%30.25 "Hg10 mi
7:53 am59 °FScattered clouds.6 mph78%30.25 "Hg10 mi
6:53 am57 °FPassing clouds.6 mph81%30.24 "Hg10 mi
5:53 am57 °FPassing clouds.No wind78%30.23 "Hg10 mi
4:53 am58 °FClear.3 mph75%30.22 "Hg10 mi
3:53 am58 °FClear.3 mph75%30.22 "Hg10 mi
2:53 am59 °FClear.6 mph72%30.22 "Hg10 mi
1:53 am60 °FClear.8 mph67%30.21 "Hg10 mi
12:53 am61 °FClear.12 mph62%30.21 "Hg10 mi
11:53 pm
Sat, Aug 8
62 °FClear.13 mph62%30.20 "Hg10 mi
Weather by CustomWeather, © 2020

See weather overview